Location: Beeston
(52.7000°N, 0.8167°E)
Time: 07:41:00
(UTC+00:00)

Cosmos 1464 Rocket - Pass Details

Date: 15 May 2026
Orbit: 952 x 1000 km, 82.9° (Epoch: 5 June)

Event Time Altitude Azimuth Distance (km) Brightness Sun altitude
Exits shadow 21:18:41 10° 171° (S) 2,710 5.8 -10.8°
Reaches altitude 10° 21:18:46 10° 171° (S) 2,679 5.8 -10.9°
Maximum altitude 21:24:46 60° 93° (E) 1,098 4.1 -11.4°
Drops below altitude 10° 21:30:51 10° 16° (NNE) 2,721 6.9 -11.9°
Sets 21:33:24 0° 13° (NNE) 3,679 7.7 -12.1°
